FW5863 Weather Reports


time (UTC)temp
C
wind
direction
speed
KPH
gust
KPH
rain 1hr
cm
rain 24hr
cm
rain mn
cm
humidity
%
barometer
mb
20260504215000 21 244 14.5 29.0 0.00 0.00 0.00 41 1008.6
20260504214501 21 245 11.3 27.4 0.00 0.00 0.00 41 1008.7
20260504214001 21 184 12.9 25.7 0.00 0.00 0.00 42 1008.6
20260504213501 21 202 12.9 24.1 0.00 0.00 0.00 41 1008.6
20260504212500 21 230 14.5 25.7 0.00 0.00 0.00 43 1008.8
20260504212001 21 166 14.5 24.1 0.00 0.00 0.00 42 1008.7
20260504211501 21 202 16.1 25.7 0.00 0.00 0.00 41 1008.7
20260504210501 22 238 11.3 25.7 0.00 0.00 0.00 40 1008.7
20260504205500 21 50 16.1 25.7 0.00 0.00 0.00 42 1008.8
20260504205001 21 50 14.5 25.7 0.00 0.00 0.00 41 1008.9
20260504204000 21 50 17.7 29.0 0.00 0.00 0.00 43 1009.0
20260504203500 21 50 16.1 29.0 0.00 0.00 0.00 42 1009.1
20260504203001 21 50 14.5 29.0 0.00 0.00 0.00 44 1009.1
20260504202500 21 50 16.1 33.8 0.00 0.00 0.00 42 1009.1
20260504202000 21 50 17.7 33.8 0.00 0.00 0.00 41 1009.2
20260504201501 21 50 19.3 30.6 0.00 0.00 0.00 40 1009.3
20260504200502 21 50 17.7 29.0 0.00 0.00 0.00 41 1009.4
20260504200004 21 50 16.1 29.0 0.00 0.00 0.00 41 1009.4
20260504195501 21 50 16.1 27.4 0.00 0.00 0.00 43 1009.4
20260504195000 21 50 16.1 30.6 0.00 0.00 0.00 43 1009.4
20260504194507 21 50 19.3 35.4 0.00 0.00 0.00 42 1009.5
20260504194000 21 50 19.3 35.4 0.00 0.00 0.00 42 1009.6
20260504193501 21 50 17.7 30.6 0.00 0.00 0.00 43 1009.6
20260504193001 21 50 19.3 32.2 0.00 0.00 0.00 44 1009.6
20260504192501 21 50 14.5 32.2 0.00 0.00 0.00 42 1009.7
20260504192000 20 50 16.1 41.8 0.00 0.00 0.00 42 1009.7
20260504191501 21 50 17.7 41.8 0.00 0.00 0.00 42 1009.7
20260504191000 21 50 16.1 25.7 0.00 0.00 0.00 43 1009.7
20260504190003 20 50 19.3 33.8 0.00 0.00 0.00 44 1009.8
20260504185501 20 50 20.9 38.6 0.00 0.00 0.00 45 1009.9
20260504185001 21 50 17.7 38.6 0.00 0.00 0.00 42 1010.1
20260504184501 20 50 16.1 30.6 0.00 0.00 0.00 43 1010.0
20260504184000 20 50 17.7 29.0 0.00 0.00 0.00 44 1010.1
20260504183500 20 50 19.3 43.5 0.00 0.00 0.00 44 1010.2
20260504183001 20 205 16.1 43.5 0.00 0.00 0.00 43 1010.3
20260504182500 20 50 12.9 25.7 0.00 0.00 0.00 44 1010.4
20260504182001 20 50 14.5 25.7 0.00 0.00 0.00 44 1010.3
20260504181502 20 50 17.7 29.0 0.00 0.00 0.00 43 1010.4
20260504181001 20 50 17.7 29.0 0.00 0.00 0.00 44 1010.5
20260504180500 20 50 16.1 30.6 0.00 0.00 0.00 44 1010.5
20260504180002 20 50 14.5 30.6 0.00 0.00 0.00 45 1010.5
20260504175501 20 50 16.1 33.8 0.00 0.00 0.00 43 1010.6
20260504174502 20 50 11.3 24.1 0.00 0.00 0.00 45 1010.7
20260504174001 19 50 16.1 25.7 0.00 0.00 0.00 47 1010.9
20260504173500 19 50 17.7 30.6 0.00 0.00 0.00 46 1011.0
20260504172500 19 50 19.3 30.6 0.00 0.00 0.00 45 1011.2
20260504172001 18 50 19.3 33.8 0.00 0.00 0.00 47 1011.2
20260504171502 18 50 19.3 33.8 0.00 0.00 0.00 45 1011.4
20260504171001 18 50 19.3 35.4 0.00 0.00 0.00 46 1011.4
20260504170500 18 50 17.7 35.4 0.00 0.00 0.00 45 1011.6
20260504151001 16 50 16.1 35.4 0.00 0.00 0.00 46 1012.7
20260504150500 16 50 14.5 32.2 0.00 0.00 0.00 44 1012.9
20260504141000 13 50 12.9 22.5 0.00 0.00 0.00 51 1013.3
20260504130501 12 50 11.3 22.5 0.00 0.00 0.00 52 1013.6
20260504110500 7 198 8.0 12.9 0.00 0.00 0.00 65 1013.7
20260504100500 5 50 4.8 6.4 0.00 0.00 0.00 67 1013.6
20260504082000 7 50 6.4 9.7 0.00 0.00 0.00 63 1013.8
20260504081501 7 50 6.4 9.7 0.00 0.00 0.00 63 1013.8
20260504081000 7 50 6.4 12.9 0.00 0.00 0.00 62 1013.8
20260504080500 7 50 6.4 12.9 0.00 0.00 0.00 62 1013.8
20260504050502 9 242 11.3 17.7 0.00 0.00 0.00 54 1013.7
20260504050004 9 50 9.7 20.9 0.00 0.00 0.00 55 1013.6
20260504045501 9 50 9.7 20.9 0.00 0.00 0.00 54 1013.7
20260504045002 9 50 9.7 17.7 0.00 0.00 0.00 54 1013.6
20260504044501 9 50 9.7 16.1 0.00 0.00 0.00 54 1013.6
20260504044001 9 50 9.7 16.1 0.00 0.00 0.00 54 1013.6
20260504043502 9 50 9.7 16.1 0.00 0.00 0.00 54 1013.6
20260504043003 9 50 9.7 17.7 0.00 0.00 0.00 54 1013.6
20260504042501 10 50 12.9 25.7 0.00 0.00 0.00 53 1013.6
20260504042001 10 50 14.5 25.7 0.00 0.00 0.00 52 1013.6
20260504041503 10 50 12.9 17.7 0.00 0.00 0.00 53 1013.5
20260504041001 10 50 11.3 17.7 0.00 0.00 0.00 53 1013.5
20260504040501 10 50 11.3 17.7 0.00 0.00 0.00 52 1013.5
20260504040007 10 50 12.9 17.7 0.00 0.00 0.00 52 1013.4
20260504035501 10 50 12.9 24.1 0.00 0.00 0.00 52 1013.3
20260504035001 10 50 12.9 24.1 0.00 0.00 0.00 51 1013.1
20260504034503 10 50 11.3 19.3 0.00 0.00 0.00 52 1013.1
20260504034002 10 50 11.3 17.7 0.00 0.00 0.00 52 1013.1
20260504033502 10 50 11.3 17.7 0.00 0.00 0.00 52 1013.1
20260504033003 10 50 11.3 17.7 0.00 0.00 0.00 52 1013.1
20260504032501 10 50 9.7 17.7 0.00 0.00 0.00 52 1013.1
20260504032001 10 50 8.0 16.1 0.00 0.00 0.00 53 1013.1
20260504031503 10 50 8.0 16.1 0.00 0.00 0.00 52 1013.1
20260504031001 10 50 8.0 12.9 0.00 0.00 0.00 52 1013.0
20260504030501 10 50 8.0 11.3 0.00 0.00 0.00 52 1012.9
20260504025503 10 233 8.0 14.5 0.00 0.00 0.00 50 1013.0
20260504025001 11 236 9.7 16.1 0.00 0.00 0.00 49 1012.9
20260504024502 11 257 9.7 16.1 0.00 0.00 0.00 49 1012.9
20260504023002 11 252 9.7 14.5 0.00 0.00 0.00 48 1013.0
20260504022501 11 252 9.7 14.5 0.00 0.00 0.00 47 1013.0
20260504022001 11 248 9.7 14.5 0.00 0.00 0.00 47 1013.0
20260504021502 11 237 9.7 12.9 0.00 0.00 0.00 48 1013.0
20260504021001 11 255 9.7 14.5 0.00 0.00 0.00 48 1013.0
20260504020503 11 259 9.7 14.5 0.00 0.00 0.00 47 1013.0
20260504015501 11 248 9.7 16.1 0.00 0.00 0.00 47 1012.9
20260504015001 11 240 9.7 14.5 0.00 0.00 0.00 46 1013.0
20260504014502 11 257 9.7 16.1 0.00 0.00 0.00 46 1012.9
20260504014001 11 255 9.7 16.1 0.00 0.00 0.00 46 1012.9
20260504013501 11 250 9.7 16.1 0.00 0.00 0.00 46 1012.9
20260504013004 11 249 11.3 16.1 0.00 0.00 0.00 45 1012.9
20260504012500 12 234 11.3 16.1 0.00 0.00 0.00 45 1012.8
20260504012001 12 252 11.3 16.1 0.00 0.00 0.00 45 1012.8
20260504011502 12 263 11.3 16.1 0.00 0.00 0.00 44 1012.8
20260504011001 12 252 9.7 16.1 0.00 0.00 0.00 44 1012.7
20260504010501 12 238 11.3 16.1 0.00 0.00 0.00 45 1012.6
20260504010004 12 237 11.3 16.1 0.00 0.00 0.00 44 1012.6
20260504005501 12 240 11.3 16.1 0.00 0.00 0.00 44 1012.6
20260504005001 12 265 11.3 16.1 0.00 0.00 0.00 44 1012.5
20260504004502 12 244 11.3 16.1 0.00 0.00 0.00 44 1012.5
20260504004000 12 248 11.3 16.1 0.00 0.00 0.00 44 1012.4
20260504003501 12 264 9.7 16.1 0.00 0.00 0.00 44 1012.3
20260504002501 12 252 9.7 16.1 0.00 0.00 0.00 43 1012.2
20260504002002 12 246 9.7 16.1 0.00 0.00 0.00 43 1012.1
20260504001001 12 238 8.0 12.9 0.00 0.00 0.00 43 1012.0
20260504000501 12 250 8.0 12.9 0.00 0.00 0.00 43 1012.0
20260504000005 12 251 8.0 11.3 0.00 0.00 0.00 42 1012.0
20260503235501 13 249 9.7 16.1 0.00 0.00 0.00 42 1011.9
20260503235001 13 50 11.3 16.1 0.00 0.00 0.00 42 1011.9
20260503234502 13 50 9.7 16.1 0.00 0.00 0.00 42 1011.8
20260503233501 13 50 12.9 20.9 0.00 0.00 0.00 41 1011.8
20260503233003 13 50 14.5 25.7 0.00 0.00 0.00 39 1011.6
20260503232502 13 50 12.9 25.7 0.00 0.00 0.00 39 1011.6
20260503232001 13 50 11.3 22.5 0.00 0.00 0.00 40 1011.6
20260503231502 14 50 12.9 22.5 0.00 0.00 0.00 40 1011.6
20260503231001 14 50 16.1 27.4 0.00 0.00 0.00 39 1011.6
20260503230501 14 50 14.5 27.4 0.00 0.00 0.00 38 1011.5
20260503230004 14 50 14.5 25.7 0.00 0.00 0.00 38 1011.5
20260503225501 14 50 11.3 25.7 0.00 0.00 0.00 38 1011.6
20260503225001 14 50 12.9 25.7 0.00 0.00 0.00 38 1011.5
20260503224001 14 50 16.1 30.6 0.00 0.00 0.00 37 1011.4
20260503223501 14 50 14.5 25.7 0.00 0.00 0.00 39 1011.4
20260503223002 14 50 16.1 29.0 0.00 0.00 0.00 39 1011.4
20260503222501 14 50 17.7 33.8 0.00 0.00 0.00 38 1011.4
20260503222001 15 50 14.5 33.8 0.00 0.00 0.00 37 1011.4
20260503221502 15 50 14.5 27.4 0.00 0.00 0.00 37 1011.4
20260503220501 15 50 14.5 29.0 0.00 0.00 0.00 38 1011.4
20260503220005 15 50 11.3 19.3 0.00 0.00 0.00 40 1011.4
20260503215503 15 50 14.5 20.9 0.00 0.00 0.00 38 1011.4